Change the Weather History Date:

Tuesday, November 20, 2012

  Actual Average Record
Temperature  
Mean Temperature 49 °F -  
Max Temperature 54 °F 47 °F 67 °F (1985)
Min Temperature 42 °F 31 °F 15 °F (1964)
Degree Days  
Heating Degree Days 16    
Moisture  
Dew Point 39 °F    
Average Humidity 70    
Maximum Humidity 89    
Minimum Humidity 59    
Precipitation  
Precipitation 0.00 in - - ()
Sea Level Pressure  
Sea Level Pressure 30.12 in    
Wind  
Wind Speed 3 mph (SE)    
Max Wind Speed 6 mph    
Max Gust Speed -    
Visibility 7 miles    
Events      
Averages and records for this station are not official NWS values.
T = Trace of Precipitation, MM = Missing Value Source: NWS Daily Summary

Daily Weather History Graph

Daily Weather History Graph

Search for Another Location

Airport or City:

Trip Planner

Search our weather history database for the weather conditions in past years. The results will help you decide how hot, cold, wet, or windy it might be!

Date:

Astronomy

Nov. 20, 2012 Rise Set
Actual Time 7:38 AM EST 5:19 PM EST
Civil Twilight 7:08 AM EST 5:49 PM EST
Nautical Twilight 6:34 AM EST 6:23 PM EST
Astronomical Twilight 6:01 AM EST 6:56 PM EST
Moon 1:09 PM EST (11/20) No Moon Set
Length of Visible Light 10h 40m
Length of Day
9h 40m
Waxing Crescent, 51% of the Moon is Illuminated
Nov 20
Waxing Crescent
Nov 28
Full
Dec 6
Last Quarter
Dec 13
New
Dec 20
First Quarter

Hourly Weather History & Observations

Time (EST) Temp. Windchill Dew Point Humidity Pressure Visibility Wind Dir Wind Speed Gust Speed Precip Events Conditions
12:53 AM 48.0 °F - 35.1 °F 61% 30.15 in 10.0 mi SSE 4.6 mph - N/A   Overcast
1:53 AM 46.9 °F - 36.0 °F 66% 30.13 in 9.0 mi South 3.5 mph - N/A   Overcast
2:53 AM 48.0 °F - 36.0 °F 63% 30.13 in 8.0 mi SSW 3.5 mph - N/A   Overcast
3:53 AM 48.0 °F - 36.0 °F 63% 30.12 in 8.0 mi SSW 3.5 mph - N/A   Overcast
4:53 AM 46.9 °F - 37.0 °F 68% 30.12 in 8.0 mi Calm Calm - N/A   Overcast
5:53 AM 46.0 °F 43.9 °F 37.9 °F 73% 30.12 in 6.0 mi SE 4.6 mph - N/A   Haze
6:53 AM 46.0 °F 43.9 °F 37.9 °F 73% 30.11 in 7.0 mi ESE 4.6 mph - 0.00 in   Overcast
7:53 AM 46.0 °F 44.8 °F 37.9 °F 73% 30.11 in 7.0 mi SE 3.5 mph - N/A   Overcast
8:53 AM 46.9 °F - 37.9 °F 71% 30.12 in 5.0 mi ESE 4.6 mph - N/A   Haze
9:53 AM 48.0 °F - 39.0 °F 71% 30.12 in 6.0 mi SE 5.8 mph - N/A   Haze
10:53 AM 48.9 °F - 39.0 °F 69% 30.13 in 6.0 mi SSE 3.5 mph - N/A   Haze
11:53 AM 51.1 °F - 41.0 °F 68% 30.11 in 7.0 mi SSE 3.5 mph - N/A   Overcast
12:53 PM 53.1 °F - 39.0 °F 59% 30.09 in 9.0 mi Calm Calm - N/A   Overcast
1:53 PM 54.0 °F - 39.9 °F 59% 30.08 in 9.0 mi Calm Calm - N/A   Overcast
2:53 PM 54.0 °F - 39.9 °F 59% 30.08 in 8.0 mi Calm Calm - N/A   Overcast
3:53 PM 53.1 °F - 41.0 °F 64% 30.09 in 8.0 mi Calm Calm - N/A   Overcast
4:53 PM 52.0 °F - 41.0 °F 66% 30.10 in 7.0 mi Calm Calm - N/A   Overcast
5:53 PM 50.0 °F - 41.0 °F 71% 30.11 in 7.0 mi Calm Calm - N/A   Overcast
6:29 PM 50.0 °F - 41.0 °F 71% 30.11 in 6.0 mi NNE 3.5 mph - N/A   Haze
6:53 PM 50.0 °F - 41.0 °F 71% 30.13 in 7.0 mi North 3.5 mph - N/A   Overcast
7:53 PM 48.9 °F - 41.0 °F 74% 30.14 in 6.0 mi North 4.6 mph - N/A   Haze
8:53 PM 48.9 °F - 41.0 °F 74% 30.15 in 5.0 mi North 3.5 mph - N/A   Haze
9:53 PM 48.9 °F - 41.0 °F 74% 30.16 in 5.0 mi Calm Calm - N/A   Haze
10:53 PM 48.0 °F - 41.0 °F 77% 30.16 in 5.0 mi Calm Calm - N/A   Haze
11:27 PM 44.6 °F 43.1 °F 39.2 °F 81% 30.15 in 4.0 mi NNW 3.5 mph - N/A   Haze
11:53 PM 42.1 °F - 39.0 °F 89% 30.17 in 2.5 mi Calm Calm - N/A   Clear